Regional Weather Roundup
Issued by NWS

Home | Current Version | Previous Version | Graphics & Text | Print | Product List | Glossary On
Versions: 1 2 3 4 5 6 7 8 9 10 11 12 13 14 15 16 17 18 19 20 21 22 23 24 25 26 27 28 29 30 31 32 33 34 35 36 37 38 39 40 41 42 43 44 45 46 47 48 49 50
000
ASUS43 KDTX 260010
RWRMI
MICHIGAN HOURLY REGIONAL WEATHER ROUNDUP
NATIONAL WEATHER SERVICE DETROIT/PONTIAC MI
700 PM EST TUE NOV 25 2014

NOTE: "FAIR" INDICATES FEW OR NO CLOUDS BELOW 12,000 FEET WITH NO
SIGNIFICANT WEATHER AND/OR OBSTRUCTION TO VISIBILITY.

MIZ047>049-052>055-059>063-066>070-074>076-081>083-260100-
SOUTHEAST LOWER MICHIGAN

CITY           SKY/WX    TMP DP  RH WIND       PRES   REMARKS
ADRIAN         CLOUDY    28  21  75 NW7       30.16F WCI  21
6HR MIN TEMP:  28; 6HR MAX TEMP:  29;

ALMA           CLOUDY    30  23  76 W6        30.12R WCI  24
ANN ARBOR      CLOUDY    29  20  69 W9        30.14R WCI  20
BAD AXE        CLOUDY    32  26  80 W7        30.10R WCI  26
6HR MIN TEMP:  31; 6HR MAX TEMP:  34;

CARO           CLOUDY    32  23  69 SW8       30.10R WCI  25
DETROIT CITY   CLOUDY    33  21  61 W9        30.14R WCI  25
6HR MIN TEMP:  33; 6HR MAX TEMP:  34;

DETROIT        CLOUDY    30  21  69 W12       30.15S WCI  20
6HR MIN TEMP:  30; 6HR MAX TEMP:  33;

FLINT          CLOUDY    32  21  64 W8        30.13R WCI  25
6HR MIN TEMP:  32; 6HR MAX TEMP:  33;

GROSSE ILE     CLOUDY    30  21  69 W6        30.15S WCI  24
HILLSDALE      CLOUDY    27  22  79 W6        30.13S WCI  21
6HR MIN TEMP:  27; 6HR MAX TEMP:  28;

HOWELL         CLOUDY    30  23  77 W8        30.12S WCI  22
6HR MIN TEMP:  29; 6HR MAX TEMP:  30;


CITY           SKY/WX    TMP DP  RH WIND       PRES   REMARKS
JACKSON        CLOUDY    28  22  78 W6        30.13S WCI  22
6HR MIN TEMP:  27; 6HR MAX TEMP:  28;

LAMBERTVILLE   CLOUDY    32  23  69 W6        30.17R WCI  26
LANSING        CLOUDY    30  21  69 W12       30.14R WCI  20
6HR MIN TEMP:  30; 6HR MAX TEMP:  31; 6HR PCP: TRACE;

LAPEER         CLOUDY    31  22  69 W7        30.12R WCI  24
MASON          CLOUDY    30  24  76 W6        30.13S WCI  24
MONROE         CLOUDY    30  23  74 CALM      30.15S
MT. CLEMENS    CLOUDY    32  23  69 W9        30.11R WCI  24
6HR MIN TEMP:  32; 6HR MAX TEMP:  34;

PONTIAC        FLURRIES  29  22  75 W8        30.10R WCI  21
6HR MIN TEMP:  29; 6HR MAX TEMP:  31; 6HR PCP: TRACE;

PORT HOPE        N/A     33  22  63 W6        30.06R WCI  28
6HR MIN TEMP:  33; 6HR MAX TEMP:  35;

PORT HURON     CLOUDY    32  25  74 SW3       30.13R
TRI CITIES     CLOUDY    32  22  66 W13       30.12R WCI  22
6HR MIN TEMP:  32; 6HR MAX TEMP:  35; 6HR PCP: TRACE;

TROY           CLOUDY    33  24  69 SW8       30.14F WCI  25
SAGINAW HB     CLOUDY    32  25  74 SW8       30.12R WCI  25
$$
MIZ043>046-050>051-056>058-064>065-071>073-077>080-260100-
SOUTHWEST LOWER MICHIGAN

CITY           SKY/WX    TMP DP  RH WIND       PRES   REMARKS
BATTLE CREEK   CLOUDY    29  20  69 W8        30.15R WCI  21
6HR MIN TEMP:  29; 6HR MAX TEMP:  31;

BENTON HARBOR  CLOUDY    28  21  75 SW8       30.16R WCI  20
6HR MIN TEMP:  28; 6HR MAX TEMP:  28;

BIG RAPIDS     CLOUDY    28  24  88 W5        30.09R WCI  22
6HR MIN TEMP:  28; 6HR MAX TEMP:  32;

COLDWATER      CLOUDY    29  22  77 W6        30.14F WCI  23
6HR MIN TEMP:  28; 6HR MAX TEMP:  29;

FREMONT        CLOUDY    27  23  83 W5        30.12R WCI  22
HOLLAND        CLOUDY    31  22  69 W8        30.15R WCI  23
6HR MIN TEMP:  30; 6HR MAX TEMP:  32;

GRAND RAPIDS   CLOUDY    29  22  75 SW10      30.13R WCI  20
6HR MIN TEMP:  29; 6HR MAX TEMP:  31; 6HR PCP: TRACE;

IONIA          CLOUDY    30  25  81 W7        30.12R WCI  23
KALAMAZOO      CLOUDY    28  20  71 SW6       30.15R WCI  22
6HR MIN TEMP:  28; 6HR MAX TEMP:  29;

LUDINGTON      CLOUDY    27  22  80 W3        30.12R
6HR MIN TEMP:  27; 6HR MAX TEMP:  29;

MARSHALL       CLOUDY    27  21  76 W7        30.14R WCI  20
MOUNT PLEASANT CLOUDY    30  21  69 W7G18     30.11R WCI  23
6HR MIN TEMP:  30; 6HR MAX TEMP:  33;

MUSKEGON       CLOUDY    30  20  66 W8        30.13R WCI  22
6HR MIN TEMP:  30; 6HR MAX TEMP:  31; 6HR PCP: TRACE;

SOUTH HAVEN    CLOUDY    31  23  70 W5        30.15R WCI  27
$$
MIZ016>042-260100-
NORTHERN LOWER MICHIGAN

CITY           SKY/WX    TMP DP  RH WIND       PRES   REMARKS
ALPENA         FLURRIES  28  26  92 W6        30.05S WCI  22
6HR MIN TEMP:  27; 6HR MAX TEMP:  30; 6HR PCP: TRACE;

BEAVER ISLAND  CLOUDY    28  21  73 W3        30.06R
6HR MIN TEMP:  28; 6HR MAX TEMP:  31;

BELLAIRE       CLOUDY    29  23  77 CALM      30.08R
CADILLAC       FLURRIES  25  22  88 SW3       30.05R
CHARLEVOIX     CLOUDY    29  21  73 W7        30.09R WCI  22
6HR MIN TEMP:  28; 6HR MAX TEMP:  30;

FRANKFORT      CLOUDY    28  22  79 W5        30.09S WCI  22
GAYLORD        CLOUDY    25  22  88 W7        30.03R WCI  17
6HR MIN TEMP:  25; 6HR MAX TEMP:  27; 6HR PCP:  0.01;

GRAYLING       CLOUDY    28  25  89 SW6       30.06R WCI  21
HARBOR SPRINGS CLOUDY    28  23  84 CALM      30.05R
HOUGHTON LAKE  CLOUDY    27  20  75 W9        30.06R WCI  18
6HR MIN TEMP:  27; 6HR MAX TEMP:  30; 6HR PCP:  0.01;

MANISTEE       CLOUDY    27  19  74 SW6       30.11R WCI  20
OSCODA         CLOUDY    30  24  76 W10       30.06S WCI  21
PELLSTON       CLOUDY    26  22  84 CALM      30.06R
6HR MIN TEMP:  26; 6HR MAX TEMP:  29; 6HR PCP:  0.01;

ROGERS CITY    CLOUDY    28  26  96 W5        30.06R WCI  22
TRAVERSE CITY  FLURRIES  28  22  78 SW3       30.07R
6HR MIN TEMP:  28; 6HR MAX TEMP:  31; 6HR PCP: TRACE;

$$
MIZ007>008-015-260100-
EASTERN UPPER MICHIGAN

CITY           SKY/WX    TMP DP  RH WIND       PRES   REMARKS
KINROSS        CLOUDY    25  23  93 W8        30.02R WCI  16
6HR MIN TEMP:  25; 6HR MAX TEMP:  28;

MACKINAC ISLAN MOCLDY    26  20  79 NW9       30.04R WCI  17
6HR MIN TEMP:  26; 6HR MAX TEMP:  30;

NEWBERRY       CLOUDY    22  21  93 SW5       30.02R WCI  16
6HR MIN TEMP:  22; 6HR MAX TEMP:  27;

S. S. MARIE    FLURRIES  27  21  78 W10       29.98S WCI  17
6HR MIN TEMP:  24; 6HR MAX TEMP:  27; 6HR PCP:  0.06;

MUNISING         N/A     22  13  68 SW6       30.05R WCI  14
6HR MIN TEMP:  22; 6HR MAX TEMP:  30; 6HR PCP:  0.02;

$$
MIZ004>006-011>014-085-260100-
CENTRAL UPPER MICHIGAN

CITY           SKY/WX    TMP DP  RH WIND       PRES   REMARKS
MANISTIQUE     PTCLDY    20  16  83 W5        30.06R WCI  14
6HR MIN TEMP:  20; 6HR MAX TEMP:  28;

ESCANABA       CLEAR     16  14  93 CALM      30.07R
6HR MIN TEMP:  16; 6HR MAX TEMP:  27;

MENOMINEE      CLOUDY    25  14  63 W3        30.08R
6HR MIN TEMP:  25; 6HR MAX TEMP:  27;

SAWYER-GWINN   CLEAR     12  10  92 CALM      30.02R
$$
MIZ001>003-009>011-084-260100-
WESTERN UPPER MICHIGAN

CITY           SKY/WX    TMP DP  RH WIND       PRES   REMARKS
IRON MOUNTAIN  CLEAR     11   5  77 CALM      30.03R
6HR MIN TEMP:   9; 6HR MAX TEMP:  24; 6HR PCP: TRACE;

HOUGHTON       MOCLDY    17  10  74 CALM      29.99R
6HR MIN TEMP:  17; 6HR MAX TEMP:  20; 6HR PCP: TRACE;

COPPER HARBOR    N/A     17  11  77 W7        30.01S WCI   8
6HR MIN TEMP:  16; 6HR MAX TEMP:  26;

IRONWOOD       CLEAR      9   9 100 CALM      29.98S
6HR MIN TEMP:   9; 6HR MAX TEMP:  19;

$$

ABBREVIATIONS USED IN REMARKS
   TC - TEMPERATURE IN CELSIUS
  WCI - WIND CHILL INDEX
   HX - HEAT INDEX
  VSB - VISIBILITY




USA.gov is the U.S. government's official web portal to all federal, state and local government web resources and services.